Wind from 213 at 0 knots gusting 0

Air temperature 16.7° C
Dewpoint 11.6° C

Last reported at 2014-Apr-23 08:47 UTC.
Time now 2014-Apr-23 09:48 UTC

Location: N 35°35' E 139°40'.
View on Google Maps.

See reports from other nearby stations

Tides Stations Pressure Air Temp Water Temp Dewpoint Dewpoint depression Visibility Wind Speed Wind Dir Waves Ship positions

  
sailing weather and tide predictions

JQ1YUX-13 Tokyo Ota-ku JP weather

date/time (UTC)wind fromknots sea level pressurealtimeterstation pressurevisibilityair tempwater tempwave heightnotes
2014-Apr-23 08:47 213 0 gusting 0 16.7
2014-Apr-23 08:36 211 2 gusting 8 17.2
2014-Apr-23 08:17 210 3 gusting 6 17.8
2014-Apr-23 08:06 232 3 gusting 7 17.8
2014-Apr-23 07:47 194 5 gusting 8 18.3
2014-Apr-23 07:36 255 3 gusting 5 18.3
2014-Apr-23 07:17 188 2 gusting 5 18.3
2014-Apr-23 07:06 218 3 gusting 5 18.9
2014-Apr-23 06:47 187 3 gusting 6 19.4
2014-Apr-23 06:36 149 1 gusting 4 20.0
2014-Apr-23 06:17 199 0 gusting 4 19.4
2014-Apr-23 06:06 184 2 gusting 1 20.0
2014-Apr-23 05:47 207 1 gusting 4 19.4
2014-Apr-23 05:36 191 1 gusting 1 19.4
2014-Apr-23 05:17 169 0 gusting 5 20.0
2014-Apr-23 05:06 144 20.0
2014-Apr-23 04:47 288 0 gusting 0 20.6
2014-Apr-23 04:36 202 0 gusting 4 20.0
2014-Apr-23 04:17 170 2 gusting 6 20.0
2014-Apr-23 04:06 188 20.6
2014-Apr-23 03:47 019 21.1
2014-Apr-23 03:36 265 0 20.6
2014-Apr-23 03:17 333 20.6
2014-Apr-23 03:06 281 20.6
2014-Apr-23 02:47 296 0 gusting 2 20.0
2014-Apr-23 02:36 267 0 gusting 5 19.4
2014-Apr-23 02:17 301 20.0
2014-Apr-23 02:06 005 19.4
2014-Apr-23 01:47 053 0 gusting 6 18.9
2014-Apr-23 01:36 261 18.9
2014-Apr-23 01:17 300 18.3
2014-Apr-23 01:06 005 18.3
2014-Apr-23 00:47 040 0 gusting 4 18.3
2014-Apr-23 00:36 325 17.8
2014-Apr-23 00:17 040 0 gusting 7 16.7
2014-Apr-23 00:06 015 5 gusting 9 17.2
2014-Apr-22 23:47 274 16.7
2014-Apr-22 23:36 355 16.1
2014-Apr-22 23:17 355 0 15.6
2014-Apr-22 23:06 355 15.0
2014-Apr-22 22:47 355 1 gusting 3 14.4
2014-Apr-22 22:36 355 13.9
2014-Apr-22 22:17 355 13.3
2014-Apr-22 22:06 355 12.8
2014-Apr-22 21:47 355 12.2
2014-Apr-22 21:36 355 12.2
2014-Apr-22 21:17 355 12.2
2014-Apr-22 21:06 355 11.7
2014-Apr-22 20:47 355 11.7
2014-Apr-22 20:36 355 11.7
2014-Apr-22 20:17 355 12.2
2014-Apr-22 20:06 355 12.2
2014-Apr-22 19:47 355 12.2
2014-Apr-22 19:36 355 12.2
2014-Apr-22 19:17 031 12.2
2014-Apr-22 19:06 030 12.2
2014-Apr-22 18:47 031 12.2
2014-Apr-22 18:36 031 12.2
2014-Apr-22 18:17 031 12.2
2014-Apr-22 18:06 030 12.2
2014-Apr-22 17:47 203 0 gusting 4 11.7
2014-Apr-22 17:36 169 11.7
2014-Apr-22 17:17 237 11.7
2014-Apr-22 17:06 237 11.7
2014-Apr-22 16:47 331 11.7
2014-Apr-22 16:36 238 11.7
2014-Apr-22 16:17 281 11.7
2014-Apr-22 16:06 281 11.7
2014-Apr-22 15:47 296 11.7
2014-Apr-22 15:36 268 0 gusting 5 12.2
2014-Apr-22 15:17 281 12.8
2014-Apr-22 15:06 277 12.8
2014-Apr-22 14:47 274 12.8
2014-Apr-22 14:36 274 12.8
2014-Apr-22 14:17 274 13.3
2014-Apr-22 14:06 273 13.3
2014-Apr-22 13:47 187 13.9
2014-Apr-22 13:36 187 13.9
2014-Apr-22 13:17 187 13.9
2014-Apr-22 13:08 187 13.9
2014-Apr-22 12:47 187 13.9
2014-Apr-22 12:36 187 13.9
2014-Apr-22 12:17 187 14.4
2014-Apr-22 12:06 187 14.4
2014-Apr-22 11:47 187 14.4
2014-Apr-22 11:36 187 14.4
2014-Apr-22 11:17 187 14.4
2014-Apr-22 11:06 187 14.4
2014-Apr-22 10:47 188 14.4
2014-Apr-22 10:36 188 14.4
2014-Apr-22 10:17 187 14.4
2014-Apr-22 10:06 188 14.4
2014-Apr-22 09:47 187 14.4
2014-Apr-22 09:36 188 14.4
2014-Apr-22 09:17 188 15.0
2014-Apr-22 09:06 187 15.0
2014-Apr-22 08:47 187 15.0
2014-Apr-22 08:36 188 15.0
2014-Apr-22 08:17 188 15.6
2014-Apr-22 08:06 187 15.6
2014-Apr-22 07:47 188 15.6
2014-Apr-22 07:36 187 15.6
2014-Apr-22 07:17 187 16.1
2014-Apr-22 07:06 188 1 gusting 4 16.1
2014-Apr-22 06:47 186 1 gusting 2 16.1
2014-Apr-22 06:36 152 0 gusting 2 16.1
2014-Apr-22 06:17 179 2 gusting 5 16.1
2014-Apr-22 06:06 180 16.1
2014-Apr-22 05:47 180 15.6
2014-Apr-22 05:36 213 15.6
2014-Apr-22 05:17 180 15.6
2014-Apr-22 05:06 198 3 gusting 6 16.1
2014-Apr-22 04:47 184 17.8
2014-Apr-22 04:36 185 17.8
2014-Apr-22 04:17 184 17.8
2014-Apr-22 04:06 186 18.3
2014-Apr-22 03:47 229 18.9
2014-Apr-22 03:36 232 18.9
2014-Apr-22 03:17 208 19.4
2014-Apr-22 03:06 271 19.4
2014-Apr-22 02:47 225 18.9
2014-Apr-22 02:36 210 0 gusting 4 18.9
2014-Apr-22 02:17 218 0 gusting 5 18.9
2014-Apr-22 02:06 196 0 gusting 5 19.4
2014-Apr-22 01:47 198 0 gusting 5 18.9
2014-Apr-22 01:36 301 19.4
2014-Apr-22 01:17 298 20.0
2014-Apr-22 01:06 034 19.4
2014-Apr-22 00:47 045 18.9
2014-Apr-22 00:36 342 18.3
2014-Apr-22 00:17 030 0 gusting 4 17.8
2014-Apr-22 00:06 029 1 gusting 6 17.8
2014-Apr-21 23:47 015 1 gusting 6 17.2
2014-Apr-21 23:36 011 3 gusting 7 16.7
2014-Apr-21 23:17 023 16.7
2014-Apr-21 23:06 028 16.1
2014-Apr-21 22:47 031 4 gusting 6 15.0
2014-Apr-21 22:36 032 3 gusting 5 15.0
2014-Apr-21 22:17 036 2 gusting 4 14.4
2014-Apr-21 22:06 029 3 gusting 5 14.4
2014-Apr-21 21:47 017 13.9
2014-Apr-21 21:36 341 0 gusting 1 13.3
2014-Apr-21 21:17 341 12.8
2014-Apr-21 21:06 011 12.8
2014-Apr-21 20:47 037 0 gusting 1 12.8
2014-Apr-21 20:36 078 12.2
2014-Apr-21 20:17 028 12.2
2014-Apr-21 20:06 017 1 gusting 6 12.2
2014-Apr-21 19:47 049 1 gusting 4 12.2
2014-Apr-21 19:36 327 1 gusting 6 12.2
2014-Apr-21 19:17 341 12.2
2014-Apr-21 19:06 321 1 gusting 1 12.2
2014-Apr-21 18:47 018 0 gusting 5 12.2
2014-Apr-21 18:36 350 3 gusting 6 12.2
2014-Apr-21 18:17 329 0 gusting 6 12.2
2014-Apr-21 18:06 013 2 gusting 6 12.2
2014-Apr-21 17:47 310 3 gusting 8 12.2
2014-Apr-21 17:36 355 3 gusting 5 12.2
2014-Apr-21 17:17 334 0 gusting 4 12.2
2014-Apr-21 17:06 010 3 gusting 9 12.2
2014-Apr-21 16:47 348 0 gusting 6 12.2
2014-Apr-21 16:36 329 4 gusting 6 12.2
2014-Apr-21 16:17 310 1 gusting 10 12.2
2014-Apr-21 16:06 355 4 gusting 8 12.2
2014-Apr-21 15:47 336 0 12.2
2014-Apr-21 15:36 014 4 gusting 6 12.2
2014-Apr-21 15:17 342 0 gusting 6 12.2
2014-Apr-21 15:06 333 0 gusting 3 12.2
2014-Apr-21 14:47 349 1 gusting 4 12.2
2014-Apr-21 14:36 338 0 gusting 6 12.2
2014-Apr-21 14:17 351 1 gusting 3 13.3
2014-Apr-21 14:06 198 13.9
2014-Apr-21 13:47 198 13.9
2014-Apr-21 13:36 198 13.9
2014-Apr-21 13:17 198 13.9
2014-Apr-21 13:06 198 13.9
2014-Apr-21 12:47 198 13.9
2014-Apr-21 12:36 198 13.9
2014-Apr-21 12:17 198 14.4
2014-Apr-21 12:06 198 14.4
2014-Apr-21 11:47 198 13.9
2014-Apr-21 11:36 198 13.9
2014-Apr-21 11:17 198 13.9
2014-Apr-21 11:06 198 13.9
2014-Apr-21 10:47 206 13.9
2014-Apr-21 10:36 205 13.9
2014-Apr-21 10:17 211 13.9
2014-Apr-21 10:06 182 13.9
2014-Apr-21 09:47 227 13.9
2014-Apr-21 09:36 228 13.9
2014-Apr-21 09:17 196 13.9
2014-Apr-21 09:06 164 4 gusting 7 13.9